EW1423 Weather Reports


time (UTC)temp
C
wind
direction
speed
KPH
gust
KPH
rain 1hr
cm
rain 24hr
cm
rain mn
cm
humidity
%
barometer
mb
20260901131802 26 318 1.6 4.8 0.00 0.00 0.00 49 1021.5
20260901131303 25 50 0.0 1.6 0.00 0.00 0.00 47 1021.5
20260901130803 25 334 0.0 4.8 0.00 0.00 0.00 51 1021.5
20260901130302 25 273 0.0 11.3 0.00 0.00 0.00 48 1021.5
20260901125802 26 358 0.0 8.0 0.00 0.00 0.00 48 1021.5
20260901125308 26 283 1.6 11.3 0.00 0.00 0.00 48 1021.5
20260901124803 26 279 1.6 9.7 0.00 0.00 0.00 48 1021.5
20260901124302 25 280 1.6 8.0 0.00 0.00 0.00 51 1021.4
20260901123802 23 296 3.2 8.0 0.00 0.00 0.00 50 1021.4
20260901123303 24 22 1.6 11.3 0.00 0.00 0.00 49 1021.4
20260901122306 25 292 0.0 4.8 0.00 0.00 0.00 50 1021.7
20260901121802 25 31 0.0 4.8 0.00 0.00 0.00 50 1021.7
20260901121302 25 63 1.6 8.0 0.00 0.00 0.00 50 1021.7
20260901120803 26 291 1.6 11.3 0.00 0.00 0.00 48 1021.7
20260901120303 26 300 1.6 8.0 0.00 0.00 0.00 46 1021.7
20260901115803 26 340 1.6 8.0 0.00 0.00 0.00 48 1021.7
20260901115306 26 31 0.0 11.3 0.00 0.00 0.00 48 1021.7
20260901114802 26 355 0.0 9.7 0.00 0.00 0.00 48 1021.7
20260901114302 26 5 0.0 9.7 0.00 0.00 0.00 49 1021.3
20260901113803 26 4 0.0 1.6 0.00 0.00 0.00 51 1021.3
20260901113303 25 272 0.0 0.0 0.00 0.00 0.00 55 1022.2
20260901112306 25 272 0.0 0.0 0.00 0.00 0.00 55 1022.2
20260901111803 25 272 0.0 0.0 0.00 0.00 0.00 55 1022.2
20260901111303 25 272 0.0 0.0 0.00 0.00 0.00 55 1022.2
20260901110804 25 272 0.0 0.0 0.00 0.00 0.00 55 1022.2
20260901105803 25 272 0.0 0.0 0.00 0.00 0.00 55 1022.2
20260901105305 25 272 0.0 0.0 0.00 0.00 0.00 55 1022.2
20260901104803 25 272 0.0 0.0 0.00 0.00 0.00 55 1022.2
20260901104303 25 272 0.0 0.0 0.00 0.00 0.00 55 1022.2
20260901103803 25 272 0.0 3.2 0.00 0.00 0.00 55 1022.2
20260901103303 25 310 0.0 1.6 0.00 0.00 0.00 55 1022.2
20260901102306 23 301 1.6 4.8 0.00 0.00 0.00 57 1022.2
20260901101803 23 252 1.6 4.8 0.00 0.00 0.00 58 1021.8
20260901100303 25 318 1.6 8.0 0.00 0.00 0.00 54 1021.9
20260901095803 24 274 0.0 3.2 0.00 0.00 0.00 58 1021.8
20260901095306 22 315 0.0 0.0 0.00 0.00 0.00 60 1021.9
20260901094804 22 328 1.6 8.0 0.00 0.00 0.00 61 1022.3
20260901093804 22 345 0.0 3.2 0.00 0.00 0.00 61 1022.4
20260901093304 22 268 0.0 4.8 0.00 0.00 0.00 61 1022.4
20260901092804 23 301 1.6 8.0 0.00 0.00 0.00 60 1022.4
20260901092305 23 266 1.6 8.0 0.00 0.00 0.00 61 1022.4
20260901091304 22 271 0.0 4.8 0.00 0.00 0.00 64 1022.5
20260901090803 21 284 1.6 8.0 0.00 0.00 0.00 69 1022.5
20260901090304 21 246 0.0 0.0 0.00 0.00 0.00 67 1022.4
20260901085306 21 273 0.0 0.0 0.00 0.00 0.00 69 1022.4
20260901084804 21 46 0.0 4.8 0.00 0.00 0.00 70 1022.4
20260901084303 21 309 1.6 3.2 0.00 0.00 0.00 70 1022.4
20260901083803 21 309 0.0 0.0 0.00 0.00 0.00 72 1022.4
20260901083304 20 53 0.0 0.0 0.00 0.00 0.00 74 1022.4
20260901082804 20 53 0.0 0.0 0.00 0.00 0.00 76 1022.4
20260901082306 20 53 0.0 3.2 0.00 0.00 0.00 75 1022.4
20260901081304 20 95 0.0 0.0 0.00 0.00 0.00 75 1022.3
20260901080803 20 158 0.0 0.0 0.00 0.00 0.00 76 1022.4
20260901080304 20 158 0.0 0.0 0.00 0.00 0.00 75 1022.4
20260901075805 19 158 0.0 1.6 0.00 0.00 0.00 77 1022.4
20260901075307 19 134 0.0 0.0 0.00 0.00 0.00 78 1022.4
20260901074804 19 134 0.0 0.0 0.00 0.00 0.00 77 1022.3
20260901074303 19 134 0.0 0.0 0.00 0.00 0.00 80 1022.3
20260901072803 18 134 0.0 0.0 0.00 0.00 0.00 79 1022.3
20260901072309 18 134 0.0 0.0 0.00 0.00 0.00 82 1022.3
20260901071804 18 134 0.0 0.0 0.00 0.00 0.00 83 1022.2
20260901071305 18 134 0.0 0.0 0.00 0.00 0.00 82 1022.2
20260901070303 17 134 0.0 0.0 0.00 0.00 0.00 84 1022.1
20260901065803 17 134 0.0 0.0 0.00 0.00 0.00 84 1022.1
20260901065305 17 134 0.0 0.0 0.00 0.00 0.00 85 1022.1
20260901064803 17 134 0.0 0.0 0.00 0.00 0.00 86 1022.1
20260901064304 17 134 0.0 0.0 0.00 0.00 0.00 86 1022.1
20260901063804 16 134 0.0 0.0 0.00 0.00 0.00 87 1022.1
20260901063303 16 134 0.0 0.0 0.00 0.00 0.00 87 1022.1
20260901062803 16 134 0.0 0.0 0.00 0.00 0.00 88 1022.1
20260901062309 16 134 0.0 0.0 0.00 0.00 0.00 91 1022.1
20260901061803 15 134 0.0 0.0 0.00 0.00 0.00 93 1022.1
20260901061304 15 134 0.0 0.0 0.00 0.00 0.00 93 1022.1
20260901060804 15 134 0.0 0.0 0.00 0.00 0.00 94 1022.1
20260901060303 14 134 0.0 0.0 0.00 0.00 0.00 95 1022.1
20260901055804 14 134 0.0 0.0 0.00 0.00 0.00 96 1022.1
20260901055306 13 134 0.0 0.0 0.00 0.00 0.00 97 1022.1
20260901054804 13 134 0.0 0.0 0.00 0.00 0.00 96 1022.1
20260901054303 13 134 0.0 0.0 0.00 0.00 0.00 96 1022.1
20260901053803 13 134 0.0 0.0 0.00 0.00 0.00 96 1022.1
20260901053303 13 134 0.0 0.0 0.00 0.00 0.00 97 1022.1
20260901052307 13 134 0.0 0.0 0.00 0.00 0.00 97 1022.1
20260901051804 13 134 0.0 0.0 0.00 0.00 0.00 98 1022.1
20260901051303 13 134 0.0 0.0 0.00 0.00 0.00 98 1022.1
20260901050804 13 136 0.0 0.0 0.00 0.00 0.00 98 1021.8
20260901050303 12 136 0.0 0.0 0.00 0.00 0.00 99 1021.8
20260901045306 12 136 0.0 0.0 0.00 0.00 0.00 99 1021.8
20260901044803 12 136 0.0 0.0 0.00 0.00 0.00 99 1021.8
20260901043804 12 136 0.0 0.0 0.00 0.00 0.00 100 1021.8
20260901043304 12 136 0.0 0.0 0.00 0.00 0.00 100 1021.8
20260901042804 12 136 0.0 0.0 0.00 0.00 0.00 99 1021.8
20260901042306 12 136 0.0 0.0 0.00 0.00 0.00 99 1021.8
20260901041804 12 136 0.0 0.0 0.00 0.00 0.00 99 1021.8
20260901040804 12 136 0.0 0.0 0.00 0.00 0.00 99 1021.8
20260901040303 12 136 0.0 0.0 0.00 0.00 0.00 99 1021.8
20260901035803 12 136 0.0 0.0 0.00 0.00 0.00 99 1021.8
20260901035305 12 136 0.0 0.0 0.00 0.00 0.00 98 1021.8
20260901034804 12 136 0.0 0.0 0.00 0.00 0.00 99 1021.8
20260901033804 12 136 0.0 0.0 0.00 0.00 0.00 98 1021.7
20260901033304 12 136 0.0 0.0 0.00 0.00 0.00 98 1021.7
20260901032306 13 136 0.0 0.0 0.00 0.00 0.00 98 1021.7
20260901031804 13 136 0.0 0.0 0.00 0.00 0.00 97 1021.7
20260901031304 13 136 0.0 0.0 0.00 0.00 0.00 97 1021.7
20260901030803 13 136 0.0 0.0 0.00 0.00 0.00 96 1021.7
20260901030304 13 136 0.0 0.0 0.00 0.00 0.00 96 1021.6
20260901025803 13 136 0.0 0.0 0.00 0.00 0.00 96 1021.6
20260901025306 13 136 0.0 0.0 0.00 0.00 0.00 96 1021.8
20260901024803 13 136 0.0 0.0 0.00 0.00 0.00 96 1021.8
20260901024303 13 136 0.0 0.0 0.00 0.00 0.00 96 1021.7
20260901023304 13 136 0.0 0.0 0.00 0.00 0.00 96 1021.7
20260901022803 13 136 0.0 0.0 0.00 0.00 0.00 96 1021.7
20260901022305 13 136 0.0 0.0 0.00 0.00 0.00 96 1021.7
20260901021803 13 136 0.0 0.0 0.00 0.00 0.00 96 1021.6
20260901021304 13 136 0.0 0.0 0.00 0.00 0.00 95 1021.5
20260901020804 13 136 0.0 0.0 0.00 0.00 0.00 95 1021.5
20260901015803 13 136 0.0 0.0 0.00 0.03 0.00 95 1021.3
20260901015305 13 136 0.0 0.0 0.00 0.03 0.00 96 1021.3
20260901014804 13 136 0.0 0.0 0.00 0.03 0.00 96 1021.3
20260901014304 13 136 0.0 0.0 0.00 0.03 0.00 96 1021.3
20260901013804 13 136 0.0 0.0 0.00 0.03 0.00 96 1021.3
20260901012804 13 136 0.0 0.0 0.00 0.03 0.00 95 1021.3
20260901012306 13 136 0.0 0.0 0.00 0.03 0.00 95 1021.3
20260901011804 13 136 0.0 0.0 0.00 0.03 0.00 95 1021.3
20260901011304 13 136 0.0 0.0 0.00 0.03 0.00 94 1021.3
20260901010804 13 136 0.0 0.0 0.00 0.05 0.00 95 1021.3
20260901010303 13 101 0.0 0.0 0.00 0.05 0.00 96 1021.3
20260901005804 13 66 0.0 0.0 0.00 0.05 0.00 96 1021.3
20260901005306 13 66 0.0 0.0 0.00 0.05 0.00 95 1021.3
20260901004304 13 66 0.0 0.0 0.00 0.05 0.00 95 1021.1
20260901003804 13 66 0.0 0.0 0.00 0.08 0.00 95 1021.1
20260901002305 13 66 0.0 0.0 0.00 0.18 0.00 94 1021.1
20260901001304 14 66 0.0 0.0 0.00 0.48 0.00 93 1021.1
20260901000803 14 66 0.0 0.0 0.00 0.51 0.00 93 1021.1
20260901000304 14 66 0.0 0.0 0.00 0.51 0.00 93 1021.1
20260831235804 13 66 0.0 0.0 0.00 0.51 0.00 93 1021.0
20260831235306 13 66 0.0 0.0 0.00 0.51 0.00 94 1021.0
20260831234804 13 66 0.0 0.0 0.00 0.51 0.00 94 1021.0
20260831234304 13 66 0.0 0.0 0.00 0.51 0.00 94 1021.1
20260831233304 13 66 0.0 0.0 0.00 0.51 0.00 93 1021.1
20260831232803 14 66 0.0 0.0 0.00 0.51 0.00 93 1021.1
20260831232305 14 66 0.0 0.0 0.00 0.51 0.00 93 1021.1
20260831231803 14 66 0.0 0.0 0.00 0.51 0.00 93 1021.1
20260831231304 14 66 0.0 0.0 0.00 0.51 0.00 93 1021.1
20260831230804 14 66 0.0 0.0 0.00 0.51 0.00 93 1021.1
20260831230303 15 66 0.0 0.0 0.00 0.51 0.00 92 1021.1
20260831225306 14 66 0.0 0.0 0.00 0.51 0.00 91 1021.1
20260831224803 15 66 0.0 0.0 0.00 0.51 0.00 91 1021.1
20260831224304 15 66 0.0 0.0 0.00 0.51 0.00 90 1021.1
20260831223804 15 66 0.0 0.0 0.00 0.51 0.00 91 1020.8
20260831222803 15 66 0.0 0.0 0.00 0.51 0.00 90 1020.8
20260831222306 15 66 0.0 0.0 0.00 0.51 0.00 90 1020.8
20260831221804 15 66 0.0 0.0 0.00 0.51 0.00 90 1020.8
20260831221304 15 66 0.0 0.0 0.00 0.51 0.00 89 1020.8
20260831220810 15 66 0.0 0.0 0.00 0.51 0.00 88 1020.8
20260831220304 15 66 0.0 0.0 0.00 0.51 0.00 88 1020.8
20260831215804 15 66 0.0 0.0 0.00 0.51 0.51 88 1020.8
20260831215306 15 66 0.0 0.0 0.00 0.51 0.51 87 1020.8
20260831214804 15 66 0.0 0.0 0.00 0.51 0.51 88 1020.5
20260831214304 15 66 0.0 0.0 0.00 0.51 0.51 89 1020.5
20260831213804 15 66 0.0 0.0 0.00 0.51 0.51 89 1020.5
20260831212306 15 66 0.0 0.0 0.00 0.51 0.51 88 1020.5
20260831211804 15 66 0.0 0.0 0.00 0.51 0.51 88 1020.5
20260831211304 15 66 0.0 0.0 0.00 0.51 0.51 88 1020.5
20260831210804 15 66 0.0 0.0 0.00 0.51 0.51 88 1020.5
20260831210303 15 66 0.0 0.0 0.00 0.51 0.51 88 1020.5
20260831205305 15 66 0.0 0.0 0.00 0.51 0.51 88 1020.4
20260831204804 15 66 0.0 0.0 0.00 0.51 0.51 87 1019.9
20260831204303 15 66 0.0 0.0 0.00 0.51 0.51 87 1019.9
20260831203803 15 66 0.0 0.0 0.00 0.51 0.51 86 1019.9
20260831203303 16 66 0.0 0.0 0.00 0.51 0.51 86 1019.9
20260831202803 16 66 0.0 0.0 0.00 0.51 0.51 85 1019.9
20260831202306 16 66 0.0 0.0 0.00 0.51 0.51 84 1019.9
20260831201804 16 66 0.0 0.0 0.00 0.51 0.51 82 1019.9
20260831201303 17 66 0.0 0.0 0.00 0.51 0.51 80 1019.9
20260831200803 17 66 0.0 0.0 0.00 0.51 0.51 78 1019.9
20260831195803 17 66 0.0 0.0 0.00 0.51 0.51 77 1019.9
20260831195306 17 66 0.0 0.0 0.00 0.51 0.51 76 1019.8
20260831194803 18 306 0.0 0.0 0.00 0.51 0.51 75 1019.8
20260831194303 18 226 0.0 0.0 0.00 0.51 0.51 75 1019.8
20260831193803 18 226 0.0 0.0 0.00 0.51 0.51 75 1019.8
20260831193304 18 226 0.0 0.0 0.00 0.51 0.51 74 1019.7
20260831192803 18 226 0.0 1.6 0.00 0.51 0.51 73 1019.7
20260831192305 18 177 1.6 8.0 0.00 0.51 0.51 72 1019.7
20260831191304 18 269 0.0 8.0 0.00 0.51 0.51 73 1019.7
20260831190804 19 320 3.2 14.5 0.00 0.51 0.51 72 1019.7
20260831190304 19 268 1.6 11.3 0.00 0.51 0.51 72 1019.7
20260831185306 19 257 3.2 14.5 0.00 0.51 0.51 73 1019.5
20260831184804 19 221 0.0 3.2 0.00 0.51 0.51 73 1018.5
20260831183804 19 327 0.0 8.0 0.00 0.51 0.51 73 1018.5
20260831183303 19 270 1.6 8.0 0.00 0.51 0.51 73 1018.5
20260831182804 19 0 0.0 4.8 0.00 0.51 0.51 73 1018.5
20260831182305 19 255 1.6 11.3 0.00 0.51 0.51 74 1018.5
20260831181804 20 313 1.6 4.8 0.00 0.51 0.51 74 1018.5
20260831180804 20 269 0.0 1.6 0.00 0.51 0.51 73 1018.5
20260831180304 19 223 0.0 8.0 0.00 0.51 0.51 74 1018.5
20260831175805 19 296 0.0 0.0 0.00 0.51 0.51 77 1018.5
20260831175306 20 296 0.0 0.0 0.00 0.51 0.51 76 1018.5
20260831174804 20 305 0.0 8.0 0.00 0.51 0.51 76 1018.7
20260831174303 20 257 1.6 9.7 0.00 0.51 0.51 74 1018.7
20260831173803 20 292 1.6 9.7 0.00 0.51 0.51 73 1018.7
20260831173304 20 294 1.6 9.7 0.00 0.51 0.51 74 1017.9
20260831172804 20 301 0.0 1.6 0.00 0.51 0.51 74 1017.9
20260831172306 20 280 0.0 3.2 0.00 0.51 0.51 73 1017.9
20260831171804 20 271 0.0 1.6 0.00 0.51 0.51 71 1017.9
20260831171304 20 284 0.0 3.2 0.00 0.51 0.51 71 1017.9
20260831170803 20 220 0.0 0.0 0.00 0.51 0.51 72 1017.9
20260831165804 20 281 0.0 0.0 0.00 0.51 0.51 71 1017.7
20260831165305 20 309 0.0 3.2 0.00 0.51 0.51 71 1017.7
20260831164803 20 258 0.0 3.2 0.00 0.51 0.51 71 1017.4
20260831164304 20 303 1.6 8.0 0.00 0.51 0.51 70 1017.4
20260831163803 21 295 0.0 9.7 0.00 0.51 0.51 69 1017.4
20260831163304 21 273 1.6 12.9 0.00 0.51 0.51 67 1017.4
20260831162804 21 333 3.2 14.5 0.00 0.51 0.51 64 1017.4
20260831161804 23 301 0.0 4.8 0.00 0.51 0.51 59 1017.4
20260831160303 23 290 0.0 20.9 0.00 0.51 0.51 61 1017.2
20260831155306 23 256 3.2 11.3 0.00 0.51 0.51 58 1017.2
20260831154804 25 272 3.2 8.0 0.00 0.51 0.51 56 1017.2
20260831154303 25 287 0.0 8.0 0.00 0.51 0.51 55 1017.2
20260831153803 25 284 3.2 11.3 0.00 0.51 0.51 55 1017.2
20260831152804 25 334 1.6 11.3 0.00 0.51 0.51 56 1016.7
20260831152306 25 285 0.0 8.0 0.00 0.51 0.51 55 1016.7
20260831151803 24 279 0.0 8.0 0.00 0.51 0.51 56 1016.7
20260831150803 23 275 1.6 9.7 0.00 0.51 0.51 58 1016.7
20260831150304 23 239 1.6 11.3 0.00 0.51 0.51 57 1016.7
20260831145803 23 258 3.2 14.5 0.00 0.51 0.51 57 1016.7
20260831145306 23 308 1.6 9.7 0.00 0.51 0.51 58 1016.7
20260831144804 23 302 1.6 11.3 0.00 0.51 0.51 56 1016.7
20260831144303 24 192 3.2 16.1 0.00 0.51 0.51 54 1016.7
20260831143804 25 336 1.6 11.3 0.00 0.51 0.51 53 1016.7
20260831143303 25 305 1.6 8.0 0.00 0.51 0.51 54 1016.9
20260831142803 25 247 1.6 16.1 0.00 0.51 0.51 53 1016.9
20260831142306 25 267 1.6 19.3 0.00 0.51 0.51 52 1016.9
20260831141804 25 267 0.0 4.8 0.00 0.51 0.51 52 1016.9
20260831141304 24 291 0.0 8.0 0.00 0.51 0.51 55 1016.9
20260831140803 24 106 1.6 4.8 0.00 0.51 0.51 54 1016.9
20260831140304 24 228 1.6 8.0 0.00 0.51 0.51 52 1016.9
20260831135804 25 333 1.6 12.9 0.00 0.51 0.51 53 1016.9
20260831134803 23 222 3.2 8.0 0.00 0.51 0.51 54 1017.0
20260831133803 24 322 1.6 11.3 0.00 0.51 0.51 54 1017.0
20260831133304 25 260 1.6 9.7 0.00 0.51 0.51 53 1017.0
20260831132803 25 299 3.2 14.5 0.00 0.51 0.51 51 1017.0
20260831132306 25 285 3.2 11.3 0.00 0.51 0.51 52 1017.0